| time (UTC) | temp C | wind direction | speed KPH | gust KPH | rain 1hr cm | rain 24hr cm | rain mn cm | humidity % | barometer mb |
| 20260902223051 | 22 | 259 | 0.0 | 0.0 | 0.00 | 0.00 | 0.00 | 36 | 1003.2 |
| 20260902221551 | 23 | 229 | 0.0 | 0.0 | 0.00 | 0.00 | 0.00 | 30 | 1003.2 |
| 20260902220057 | 24 | 237 | 0.0 | 0.0 | 0.00 | 0.00 | 0.00 | 28 | 1002.5 |
| 20260902214650 | 24 | 237 | 0.0 | 0.0 | 0.00 | 0.00 | 0.00 | 29 | 1002.3 |
| 20260902213048 | 25 | 288 | 0.0 | 0.0 | 0.00 | 0.00 | 0.00 | 31 | 1002.2 |
| 20260902211544 | 23 | 45 | 0.0 | 0.0 | 0.00 | 0.00 | 0.00 | 34 | 1002.4 |
| 20260902210043 | 23 | 45 | 0.0 | 0.0 | 0.00 | 0.00 | 0.00 | 37 | 1002.4 |
| 20260902204540 | 23 | 32 | 0.0 | 0.0 | 0.00 | 0.00 | 0.00 | 36 | 1002.6 |
| 20260902203038 | 23 | 31 | 0.0 | 0.0 | 0.00 | 0.00 | 0.00 | 38 | 1002.8 |
| 20260902201539 | 22 | 33 | 0.0 | 0.0 | 0.00 | 0.00 | 0.00 | 40 | 1003.0 |
| 20260902200035 | 22 | 31 | 0.0 | 0.0 | 0.00 | 0.00 | 0.00 | 41 | 1003.2 |
| 20260902194533 | 22 | 31 | 0.0 | 0.0 | 0.00 | 0.00 | 0.00 | 41 | 1003.6 |
| 20260902193030 | 22 | 31 | 0.0 | 0.0 | 0.00 | 0.00 | 0.00 | 39 | 1003.6 |
| 20260902191532 | 22 | 31 | 0.0 | 0.0 | 0.00 | 0.00 | 0.00 | 40 | 1003.9 |
| 20260902190027 | 22 | 31 | 0.0 | 0.0 | 0.00 | 0.00 | 0.00 | 39 | 1004.0 |
| 20260902184525 | 22 | 29 | 0.0 | 0.0 | 0.00 | 0.00 | 0.00 | 41 | 1004.1 |
| 20260902183024 | 21 | 29 | 0.0 | 0.0 | 0.00 | 0.00 | 0.00 | 42 | 1004.3 |
| 20260902181519 | 21 | 23 | 0.0 | 0.0 | 0.00 | 0.00 | 0.00 | 43 | 1004.6 |
| 20260902180017 | 21 | 23 | 0.0 | 0.0 | 0.00 | 0.00 | 0.00 | 43 | 1004.7 |
| 20260902174516 | 20 | 23 | 0.0 | 0.0 | 0.00 | 0.00 | 0.00 | 46 | 1004.9 |
| 20260902173025 | 20 | 23 | 0.0 | 0.0 | 0.00 | 0.00 | 0.00 | 46 | 1005.0 |
| 20260902171509 | 19 | 23 | 0.0 | 0.0 | 0.00 | 0.00 | 0.00 | 48 | 1005.3 |
| 20260902170010 | 18 | 23 | 0.0 | 0.0 | 0.00 | 0.00 | 0.00 | 51 | 1005.3 |
| 20260902164505 | 18 | 318 | 0.0 | 0.0 | 0.00 | 0.00 | 0.00 | 53 | 1005.4 |
| 20260902163001 | 18 | 322 | 0.0 | 0.0 | 0.00 | 0.00 | 0.00 | 50 | 1005.4 |
| 20260902161607 | 17 | 322 | 0.0 | 0.0 | 0.00 | 0.00 | 0.00 | 52 | 1005.4 |
| 20260902160057 | 17 | 322 | 0.0 | 0.0 | 0.00 | 0.00 | 0.00 | 52 | 1005.6 |
| 20260902154553 | 17 | 326 | 0.0 | 0.0 | 0.00 | 0.00 | 0.00 | 53 | 1005.8 |
| 20260902153052 | 17 | 326 | 0.0 | 0.0 | 0.00 | 0.00 | 0.00 | 54 | 1006.0 |
| 20260902151549 | 16 | 314 | 0.0 | 0.0 | 0.00 | 0.00 | 0.00 | 59 | 1006.1 |
| 20260902150049 | 13 | 316 | 0.0 | 0.0 | 0.00 | 0.00 | 0.00 | 63 | 1006.3 |
| 20260902144548 | 13 | 314 | 0.0 | 0.0 | 0.00 | 0.00 | 0.00 | 64 | 1006.5 |
| 20260902143047 | 13 | 327 | 0.0 | 0.0 | 0.00 | 0.00 | 0.00 | 65 | 1006.4 |
| 20260902141547 | 12 | 254 | 0.0 | 0.0 | 0.00 | 0.00 | 0.00 | 66 | 1006.4 |
| 20260902140049 | 12 | 249 | 0.0 | 0.0 | 0.00 | 0.00 | 0.00 | 66 | 1006.5 |
| 20260902134547 | 13 | 248 | 0.0 | 0.0 | 0.00 | 0.00 | 0.00 | 64 | 1006.5 |
| 20260902133043 | 13 | 247 | 0.0 | 0.0 | 0.00 | 0.00 | 0.00 | 64 | 1006.5 |
| 20260902131542 | 13 | 248 | 0.0 | 0.0 | 0.00 | 0.00 | 0.00 | 63 | 1006.5 |
| 20260902130043 | 13 | 247 | 0.0 | 0.0 | 0.00 | 0.00 | 0.00 | 66 | 1006.2 |
| 20260902124542 | 13 | 247 | 0.0 | 0.0 | 0.00 | 0.00 | 0.00 | 66 | 1006.1 |
| 20260902123043 | 13 | 248 | 0.0 | 0.0 | 0.00 | 0.00 | 0.00 | 66 | 1006.1 |
| 20260902121539 | 13 | 247 | 0.0 | 0.0 | 0.00 | 0.00 | 0.00 | 67 | 1006.1 |
| 20260902120038 | 13 | 248 | 0.0 | 0.0 | 0.00 | 0.00 | 0.00 | 66 | 1005.7 |
| 20260902114603 | 13 | 247 | 0.0 | 0.0 | 0.00 | 0.00 | 0.00 | 65 | 1005.6 |
| 20260902113046 | 14 | 247 | 0.0 | 0.0 | 0.00 | 0.00 | 0.00 | 64 | 1005.7 |
| 20260902111534 | 15 | 248 | 0.0 | 0.0 | 0.00 | 0.00 | 0.00 | 64 | 1006.1 |
| 20260902110039 | 14 | 247 | 0.0 | 0.0 | 0.00 | 0.00 | 0.00 | 66 | 1006.4 |
| 20260902104538 | 13 | 248 | 0.0 | 0.0 | 0.00 | 0.00 | 0.00 | 67 | 1006.6 |
| 20260902103031 | 13 | 248 | 0.0 | 0.0 | 0.00 | 0.00 | 0.00 | 68 | 1006.5 |
| 20260902101531 | 13 | 247 | 0.0 | 0.0 | 0.00 | 0.00 | 0.00 | 68 | 1006.1 |
| 20260902100029 | 13 | 247 | 0.0 | 0.0 | 0.00 | 0.00 | 0.00 | 67 | 1006.1 |
| 20260902094530 | 13 | 247 | 0.0 | 0.0 | 0.00 | 0.00 | 0.00 | 66 | 1005.9 |
| 20260902093024 | 13 | 248 | 0.0 | 0.0 | 0.00 | 0.00 | 0.00 | 63 | 1006.1 |
| 20260902091522 | 14 | 247 | 0.0 | 0.0 | 0.00 | 0.00 | 0.00 | 64 | 1006.0 |
| 20260902090021 | 14 | 248 | 0.0 | 0.0 | 0.00 | 0.00 | 0.00 | 62 | 1006.4 |
| 20260902084524 | 16 | 248 | 0.0 | 0.0 | 0.00 | 0.00 | 0.00 | 59 | 1006.3 |
| 20260902083026 | 16 | 248 | 0.0 | 0.0 | 0.00 | 0.00 | 0.00 | 59 | 1006.0 |
| 20260902081516 | 16 | 246 | 0.0 | 0.0 | 0.00 | 0.00 | 0.00 | 60 | 1006.4 |
| 20260902080016 | 16 | 245 | 0.0 | 0.0 | 0.00 | 0.00 | 0.00 | 59 | 1006.2 |
| 20260902074518 | 15 | 245 | 0.0 | 0.0 | 0.00 | 0.00 | 0.00 | 60 | 1006.3 |
| 20260902073011 | 16 | 245 | 0.0 | 0.0 | 0.00 | 0.00 | 0.00 | 58 | 1006.0 |
| 20260902071510 | 16 | 248 | 0.0 | 0.0 | 0.00 | 0.00 | 0.00 | 57 | 1006.1 |
| 20260902070008 | 16 | 239 | 0.0 | 0.0 | 0.00 | 0.00 | 0.00 | 56 | 1006.0 |
| 20260902064505 | 16 | 241 | 0.0 | 0.0 | 0.00 | 0.00 | 0.00 | 57 | 1005.7 |
| 20260902063012 | 16 | 240 | 0.0 | 0.0 | 0.00 | 0.00 | 0.00 | 57 | 1005.6 |
| 20260902061503 | 16 | 239 | 0.0 | 0.0 | 0.00 | 0.00 | 0.00 | 55 | 1005.5 |
| 20260902060001 | 17 | 239 | 0.0 | 0.0 | 0.00 | 0.00 | 0.00 | 54 | 1005.4 |
| 20260902054501 | 16 | 235 | 0.0 | 0.0 | 0.00 | 0.00 | 0.00 | 53 | 1005.4 |
| 20260902053106 | 17 | 237 | 0.0 | 0.0 | 0.00 | 0.00 | 0.00 | 50 | 1005.3 |
| 20260902051600 | 18 | 234 | 0.0 | 0.0 | 0.00 | 0.00 | 0.00 | 48 | 1005.1 |
| 20260902050059 | 18 | 234 | 0.0 | 0.0 | 0.00 | 0.00 | 0.00 | 47 | 1005.1 |
| 20260902044601 | 18 | 234 | 0.0 | 0.0 | 0.00 | 0.00 | 0.00 | 44 | 1004.8 |
| 20260902043102 | 19 | 234 | 0.0 | 0.0 | 0.00 | 0.00 | 0.00 | 43 | 1004.6 |
| 20260902041556 | 20 | 245 | 0.0 | 0.0 | 0.00 | 0.00 | 0.00 | 44 | 1004.2 |
| 20260902040057 | 19 | 311 | 0.0 | 0.0 | 0.00 | 0.00 | 0.00 | 43 | 1003.9 |
| 20260902034605 | 19 | 316 | 0.0 | 0.0 | 0.00 | 0.00 | 0.00 | 42 | 1003.5 |
| 20260902033104 | 20 | 316 | 0.0 | 0.0 | 0.00 | 0.00 | 0.00 | 42 | 1003.3 |
| 20260902031554 | 20 | 316 | 0.0 | 0.0 | 0.00 | 0.00 | 0.00 | 41 | 1002.9 |
| 20260902030054 | 21 | 316 | 0.0 | 0.0 | 0.00 | 0.00 | 0.00 | 38 | 1002.7 |
| 20260902024553 | 22 | 316 | 0.0 | 0.0 | 0.00 | 0.00 | 0.00 | 37 | 1002.3 |
| 20260902023054 | 22 | 316 | 0.0 | 0.0 | 0.00 | 0.00 | 0.00 | 37 | 1002.0 |
| 20260902021552 | 23 | 316 | 0.0 | 0.0 | 0.00 | 0.00 | 0.00 | 38 | 1002.0 |
| 20260902020100 | 24 | 316 | 0.0 | 0.0 | 0.00 | 0.00 | 0.00 | 37 | 1001.9 |
| 20260902014552 | 25 | 316 | 0.0 | 0.0 | 0.00 | 0.00 | 0.00 | 37 | 1001.9 |
| 20260902013051 | 25 | 310 | 0.0 | 0.0 | 0.00 | 0.00 | 0.00 | 35 | 1001.8 |
| 20260902011551 | 26 | 60 | 0.0 | 0.0 | 0.00 | 0.00 | 0.00 | 34 | 1001.8 |
| 20260902010056 | 26 | 60 | 0.0 | 0.0 | 0.00 | 0.00 | 0.00 | 34 | 1001.7 |
| 20260902004551 | 26 | 310 | 0.0 | 0.0 | 0.00 | 0.00 | 0.00 | 34 | 1001.7 |
| 20260902003052 | 26 | 309 | 0.0 | 0.0 | 0.00 | 0.00 | 0.00 | 33 | 1001.5 |
| 20260902001556 | 27 | 306 | 0.0 | 0.0 | 0.00 | 0.00 | 0.00 | 32 | 1001.5 |
| 20260902000049 | 27 | 318 | 0.0 | 0.0 | 0.00 | 0.00 | 0.00 | 33 | 1001.5 |
| 20260901234559 | 27 | 318 | 0.0 | 0.0 | 0.00 | 0.00 | 0.00 | 32 | 1001.6 |
| 20260901233059 | 27 | 318 | 0.0 | 0.0 | 0.00 | 0.00 | 0.00 | 32 | 1001.6 |
| 20260901231550 | 27 | 318 | 0.0 | 0.0 | 0.00 | 0.00 | 0.00 | 31 | 1001.7 |
| 20260901230046 | 27 | 318 | 0.0 | 0.0 | 0.00 | 0.00 | 0.00 | 31 | 1001.8 |
| 20260901224545 | 27 | 316 | 0.0 | 0.0 | 0.00 | 0.00 | 0.00 | 32 | 1002.0 |